[Date Prev][Date Next][Thread Prev][Thread Next] - [Date Index][Thread Index][Author Index]
2 Line ISS Keps 1-8
- Subject: [sarex] 2 Line ISS Keps 1-8
- From: "Dave Larsen PhD" <doc@xxxxxxxxxxx>
- Date: Fri, 7 Jan 2005 18:30:46 -0800
ISS
1 25544U 98067A 05008.02616692 .00023870 00000-0 17901-3 0 5408
2 25544 51.6399 359.8204 0003286 172.3269 256.8345 15.72489178350503
----
Via the sarex mailing list at AMSAT.ORG courtesy of AMSAT-NA.
To unsubscribe, send "unsubscribe sarex" to Majordomo@amsat.org
AMSAT Home